Weather History for KJZI - March, 2013

Change the Weather History Date:

Sunday, March 17, 2013

  Actual Average (KCHS) Record (KCHS)
Temperature  
Mean Temperature 67 °F 58 °F  
Max Temperature 75 °F 70 °F 89 °F (1945)
Min Temperature 59 °F 47 °F 28 °F (1954)
Degree Days  
Heating Degree Days 0 8  
Month to date heating degree days 156  
Since 1 July heating degree days 1792  
Cooling Degree Days 2 1  
Month to date cooling degree days 15  
Year to date cooling degree days 22  
Growing Degree Days 17 (Base 50)    
Moisture  
Dew Point 52 °F    
Average Humidity 65    
Maximum Humidity 77    
Minimum Humidity 47    
Precipitation  
Precipitation 0.00 in 0.12 in 3.16 in (1983)
Month to date precipitation 2.01  
Year to date precipitation 8.68  
Sea Level Pressure  
Sea Level Pressure 30.01 in    
Wind  
Wind Speed 9 mph (SW)    
Max Wind Speed 17 mph    
Max Gust Speed 28 mph    
Visibility 10 miles    
Events      
T = Trace of Precipitation, MM = Missing Value Source: NWS Daily Summary

Daily Weather History Graph

Daily Weather History Graph

Search for Another Location

Airport or City:

Trip Planner

Search our weather history database for the weather conditions in past years. The results will help you decide how hot, cold, wet, or windy it might be!

Date:

Astronomy

Mar. 17, 2013 Rise Set
Actual Time 7:27 AM EDT 7:29 PM EDT
Civil Twilight 7:02 AM EDT 7:54 PM EDT
Nautical Twilight 6:34 AM EDT 8:22 PM EDT
Astronomical Twilight 6:05 AM EDT 8:51 PM EDT
Moon 10:56 AM EDT (3/17) 12:18 AM EDT (3/17)
Length of Visible Light 12h 51m
Length of Day
12h 02m
Waxing Crescent, 31% of the Moon is Illuminated
Mar 17
Waxing Crescent
Mar 19
First Quarter
Mar 27
Full
Apr 3
Last Quarter
Apr 10
New

Hourly Weather History & Observations

Time (EDT) Temp. Dew Point Humidity Pressure Visibility Wind Dir Wind Speed Gust Speed Precip Events Conditions
12:15 AM 60.8 °F 51.8 °F 72% 29.98 in 10.0 mi SSW 6.9 mph - 0.00 in   Clear
12:35 AM 60.8 °F 51.8 °F 72% 29.98 in 10.0 mi SSW 8.1 mph - 0.00 in   Clear
1:15 AM 60.8 °F 51.8 °F 72% 29.98 in 10.0 mi WSW 3.5 mph - 0.00 in   Clear
1:35 AM 60.8 °F 50.0 °F 68% 29.98 in 10.0 mi SW 5.8 mph - 0.00 in   Clear
1:55 AM 60.8 °F 50.0 °F 68% 29.98 in 10.0 mi SW 9.2 mph - 0.00 in   Clear
2:15 AM 62.6 °F 50.0 °F 63% 29.98 in 10.0 mi SW 8.1 mph - 0.00 in   Clear
2:35 AM 62.6 °F 50.0 °F 63% 29.99 in 10.0 mi WSW 10.4 mph - 0.00 in   Clear
2:55 AM 62.6 °F 50.0 °F 63% 29.99 in 10.0 mi WSW 10.4 mph 16.1 mph 0.00 in   Clear
3:15 AM 62.6 °F 50.0 °F 63% 29.99 in 10.0 mi WSW 8.1 mph - 0.00 in   Clear
3:35 AM 62.6 °F 50.0 °F 63% 29.99 in 10.0 mi WSW 8.1 mph - 0.00 in   Clear
3:55 AM 62.6 °F 50.0 °F 63% 29.99 in 10.0 mi WSW 5.8 mph - 0.00 in   Clear
4:15 AM 62.6 °F 50.0 °F 63% 29.99 in 10.0 mi WSW 8.1 mph - 0.00 in   Clear
4:35 AM 60.8 °F 51.8 °F 72% 29.99 in 10.0 mi SW 5.8 mph - 0.00 in   Clear
4:55 AM 60.8 °F 51.8 °F 72% 29.99 in 10.0 mi WSW 6.9 mph - 0.00 in   Clear
5:15 AM 60.8 °F 51.8 °F 72% 29.99 in 10.0 mi WSW 6.9 mph - 0.00 in   Clear
5:35 AM 60.8 °F 51.8 °F 72% 29.99 in 10.0 mi WSW 4.6 mph - 0.00 in   Clear
5:55 AM 60.8 °F 51.8 °F 72% 30.00 in 10.0 mi WSW 4.6 mph - 0.00 in   Clear
6:15 AM 60.8 °F 51.8 °F 72% 30.00 in 10.0 mi WSW 8.1 mph - 0.00 in   Clear
6:35 AM 60.8 °F 51.8 °F 72% 30.01 in 10.0 mi WSW 8.1 mph - 0.00 in   Clear
6:55 AM 59.0 °F 51.8 °F 77% 30.02 in 10.0 mi WSW 6.9 mph - 0.00 in   Clear
7:15 AM 59.0 °F 51.8 °F 77% 30.02 in 10.0 mi WSW 8.1 mph - 0.00 in   Clear
7:35 AM 59.0 °F 51.8 °F 77% 30.02 in 10.0 mi WSW 9.2 mph - 0.00 in   Clear
7:55 AM 59.0 °F 51.8 °F 77% 30.03 in 10.0 mi WSW 8.1 mph - 0.00 in   Clear
8:15 AM 59.0 °F 51.8 °F 77% 30.04 in 10.0 mi WSW 6.9 mph - 0.00 in   Clear
8:35 AM 60.8 °F 53.6 °F 77% 30.04 in 10.0 mi WSW 9.2 mph - 0.00 in   Clear
8:55 AM 60.8 °F 53.6 °F 77% 30.05 in 10.0 mi WSW 9.2 mph - 0.00 in   Clear
9:15 AM 62.6 °F 53.6 °F 72% 30.05 in 10.0 mi WSW 10.4 mph 16.1 mph 0.00 in   Clear
9:35 AM 64.4 °F 53.6 °F 68% 30.04 in 10.0 mi West 12.7 mph 18.4 mph 0.00 in   Clear
9:55 AM 64.4 °F 53.6 °F 68% 30.05 in 10.0 mi WSW 9.2 mph 16.1 mph 0.00 in   Clear
10:15 AM 66.2 °F 53.6 °F 64% 30.05 in 10.0 mi West 12.7 mph 20.7 mph 0.00 in   Clear
10:35 AM 68.0 °F 53.6 °F 60% 30.05 in 10.0 mi WSW 11.5 mph 20.7 mph 0.00 in   Clear
11:15 AM 71.6 °F 53.6 °F 53% 30.04 in 10.0 mi West 12.7 mph 17.3 mph 0.00 in   Clear
11:35 AM 71.6 °F 53.6 °F 53% 30.04 in 10.0 mi West 8.1 mph - 0.00 in   Clear
11:55 AM 71.6 °F 53.6 °F 53% 30.04 in 10.0 mi West 13.8 mph 18.4 mph 0.00 in   Clear
12:15 PM 73.4 °F 53.6 °F 50% 30.04 in 10.0 mi WSW 9.2 mph - 0.00 in   Clear
12:35 PM 73.4 °F 53.6 °F 50% 30.03 in 10.0 mi WSW 10.4 mph 17.3 mph 0.00 in   Partly Cloudy
12:55 PM 75.2 °F 53.6 °F 47% 30.03 in 10.0 mi WSW 8.1 mph 17.3 mph 0.00 in   Partly Cloudy
1:15 PM 73.4 °F 55.4 °F 53% 30.02 in 10.0 mi SSW 15.0 mph 18.4 mph 0.00 in   Partly Cloudy
1:35 PM 71.6 °F 55.4 °F 57% 30.02 in 10.0 mi SSW 15.0 mph 19.6 mph 0.00 in   Partly Cloudy
1:55 PM 71.6 °F 55.4 °F 57% 30.01 in 10.0 mi SSW 16.1 mph - 0.00 in   Partly Cloudy
2:15 PM 69.8 °F 55.4 °F 60% 30.01 in 10.0 mi SSW 16.1 mph - 0.00 in   Partly Cloudy
2:35 PM 69.8 °F 55.4 °F 60% 30.00 in 10.0 mi SSW 16.1 mph - 0.00 in   Scattered Clouds
2:55 PM 69.8 °F 55.4 °F 60% 29.99 in 10.0 mi SSW 13.8 mph 23.0 mph 0.00 in   Scattered Clouds
3:15 PM 71.6 °F 55.4 °F 57% 29.98 in 10.0 mi SSW 16.1 mph 24.2 mph 0.00 in   Scattered Clouds
3:35 PM 71.6 °F 55.4 °F 57% 29.98 in 10.0 mi SSW 16.1 mph 27.6 mph 0.00 in   Partly Cloudy
4:15 PM 69.8 °F 53.6 °F 56% 29.98 in 10.0 mi SSW 17.3 mph 21.9 mph 0.00 in   Clear
4:35 PM 68.0 °F 53.6 °F 60% 29.98 in 10.0 mi SSW 16.1 mph 23.0 mph 0.00 in   Scattered Clouds
4:55 PM 66.2 °F 53.6 °F 64% 29.98 in 10.0 mi SSW 13.8 mph 20.7 mph 0.00 in   Scattered Clouds
5:15 PM 66.2 °F 51.8 °F 60% 29.98 in 10.0 mi SSW 13.8 mph 21.9 mph 0.00 in   Scattered Clouds
5:35 PM 64.4 °F 53.6 °F 68% 29.98 in 10.0 mi SSW 11.5 mph 20.7 mph 0.00 in   Partly Cloudy
5:55 PM 64.4 °F 51.8 °F 64% 29.99 in 10.0 mi SSW 13.8 mph - 0.00 in   Clear
6:15 PM 64.4 °F 51.8 °F 64% 29.99 in 10.0 mi SSW 13.8 mph 20.7 mph 0.00 in   Clear
6:35 PM 62.6 °F 50.0 °F 63% 30.00 in 10.0 mi SSW 13.8 mph 19.6 mph 0.00 in   Clear
6:55 PM 64.4 °F 50.0 °F 59% 30.00 in 10.0 mi SW 13.8 mph 21.9 mph 0.00 in   Clear
7:15 PM 64.4 °F 50.0 °F 59% 30.00 in 10.0 mi SSW 13.8 mph 23.0 mph 0.00 in   Clear
7:35 PM 62.6 °F 51.8 °F 68% 30.01 in 10.0 mi SSW 12.7 mph 18.4 mph 0.00 in   Clear
7:55 PM 62.6 °F 53.6 °F 72% 30.02 in 10.0 mi SSW 10.4 mph 16.1 mph 0.00 in   Clear
8:15 PM 62.6 °F 53.6 °F 72% 30.02 in 10.0 mi SSW 10.4 mph - 0.00 in   Clear
8:35 PM 62.6 °F 53.6 °F 72% 30.03 in 10.0 mi SW 10.4 mph - 0.00 in   Clear
9:15 PM 62.6 °F 51.8 °F 68% 30.04 in 10.0 mi SW 10.4 mph - 0.00 in   Clear
9:35 PM 62.6 °F 51.8 °F 68% 30.04 in 10.0 mi SW 11.5 mph - 0.00 in   Clear
9:55 PM 62.6 °F 51.8 °F 68% 30.04 in 10.0 mi SSW 11.5 mph 16.1 mph 0.00 in   Clear
10:15 PM 62.6 °F 51.8 °F 68% 30.05 in 10.0 mi SSW 10.4 mph 17.3 mph 0.00 in   Clear
10:35 PM 62.6 °F 51.8 °F 68% 30.05 in 10.0 mi SSW 9.2 mph - 0.00 in   Clear
10:55 PM 62.6 °F 51.8 °F 68% 30.05 in 10.0 mi SSW 8.1 mph 16.1 mph 0.00 in   Clear
11:15 PM 62.6 °F 53.6 °F 72% 30.05 in 10.0 mi SW 9.2 mph - 0.00 in   Clear
11:35 PM 64.4 °F 51.8 °F 64% 30.05 in 10.0 mi SW 8.1 mph - 0.00 in   Scattered Clouds
11:55 PM 64.4 °F 51.8 °F 64% 30.05 in 10.0 mi SW 6.9 mph - 0.00 in   Mostly Cloudy